DF7PN-WX Weather Reports


time (UTC)temp
F
wind
direction
speed
knots
gust
knots
rain 1hr
in
rain 24hr
in
rain mn
in
humidity
%
barometer
mb
20260506113636 65 236 0.9 0.9 0.00 0.00 0.00 67 1006.5
20260506113136 65 236 0.9 0.9 0.00 0.00 0.00 66 1006.5
20260506112636 64 236 0.9 0.9 0.00 0.00 0.00 69 1006.6
20260506112136 63 236 1.7 1.7 0.00 0.00 0.00 69 1006.5
20260506111636 64 236 1.7 1.7 0.00 0.00 0.00 66 1006.6
20260506111136 64 236 2.6 3.5 0.00 0.00 0.00 65 1006.5
20260506110636 65 236 4.3 5.2 0.00 0.00 0.00 64 1006.6
20260506110136 65 236 6.1 7.8 0.00 0.00 0.00 64 1006.6
20260506105636 65 236 6.1 7.8 0.00 0.00 0.00 63 1006.7
20260506105136 66 236 6.1 7.8 0.00 0.00 0.00 62 1006.7
20260506104636 66 225 4.3 4.3 0.00 0.00 0.00 61 1006.7
20260506104136 66 225 4.3 4.3 0.00 0.00 0.00 64 1006.7
20260506103635 65 225 4.3 4.3 0.00 0.00 0.00 64 1006.7
20260506103135 65 225 6.1 7.0 0.00 0.00 0.00 66 1006.8
20260506102635 64 225 6.1 7.0 0.00 0.00 0.00 69 1006.8
20260506102135 64 225 6.1 7.0 0.00 0.00 0.00 67 1006.8
20260506101635 65 225 6.1 7.0 0.00 0.00 0.00 64 1006.8
20260506101135 66 225 6.1 7.0 0.00 0.00 0.00 67 1006.8
20260506100635 65 225 6.1 7.0 0.00 0.00 0.00 64 1006.8
20260506100135 66 225 6.1 7.0 0.00 0.00 0.00 66 1006.7
20260506095635 64 225 6.1 7.0 0.00 0.00 0.00 68 1006.7
20260506095135 64 225 6.1 7.0 0.00 0.00 0.00 70 1006.7
20260506094635 64 225 6.1 7.0 0.00 0.00 0.00 70 1006.6
20260506094135 64 226 2.6 2.6 0.00 0.00 0.00 73 1006.5
20260506093635 63 226 2.6 2.6 0.00 0.00 0.00 73 1006.6
20260506093135 63 226 2.6 2.6 0.00 0.00 0.00 73 1006.7
20260506092635 62 226 4.3 4.3 0.00 0.00 0.00 76 1006.6
20260506092134 63 226 4.3 4.3 0.00 0.00 0.00 78 1006.5
20260506091635 62 226 6.1 7.0 0.00 0.00 0.00 76 1006.6
20260506091134 63 226 6.1 7.0 0.00 0.00 0.00 72 1006.7
20260506090634 63 226 6.1 7.0 0.00 0.00 0.00 71 1006.7
20260506090134 63 226 6.1 7.0 0.00 0.00 0.00 72 1006.7
20260506085634 63 226 6.1 7.0 0.00 0.00 0.00 73 1006.7
20260506085134 63 226 6.1 7.0 0.00 0.00 0.00 72 1006.7
20260506084634 63 226 6.1 7.0 0.00 0.00 0.00 73 1006.7
20260506084134 62 226 6.1 7.0 0.00 0.00 0.00 75 1006.7
20260506083634 63 235 0.9 1.7 0.00 0.00 0.00 77 1006.6
20260506083134 62 235 0.9 1.7 0.00 0.00 0.00 77 1006.5
20260506082634 62 235 0.9 1.7 0.00 0.00 0.00 78 1006.4
20260506082134 61 235 1.7 2.6 0.00 0.00 0.00 80 1006.4
20260506081634 61 235 3.5 4.3 0.00 0.00 0.00 81 1006.4
20260506081134 61 235 3.5 4.3 0.00 0.00 0.00 81 1006.4
20260506080633 61 235 5.2 7.0 0.00 0.00 0.00 84 1006.5
20260506080133 60 235 5.2 7.0 0.00 0.00 0.00 83 1006.5
20260506073133 58 222 1.7 1.7 0.00 0.00 0.00 91 1006.5
20260506072633 59 222 2.6 3.5 0.00 0.00 0.00 94 1006.5
20260506072133 59 222 2.6 3.5 0.00 0.00 0.00 94 1006.5
20260506071633 59 222 2.6 3.5 0.00 0.00 0.00 93 1006.6
20260506071133 58 222 4.3 5.2 0.00 0.00 0.00 97 1006.5
20260506070633 58 222 6.1 7.8 0.00 0.00 0.00 96 1006.5
20260506070133 58 222 6.1 7.8 0.00 0.00 0.00 97 1006.4
20260506062132 57 224 3.5 7.0 0.00 0.00 0.00 10 1006.4
20260506061632 56 224 5.2 10.4 0.00 0.00 0.00 10 1006.4
20260506061132 56 224 5.2 10.4 0.00 0.00 0.00 10 1006.3
20260506060632 56 224 5.2 10.4 0.00 0.00 0.00 10 1006.3
20260506060132 56 229 0.0 1.7 0.00 0.00 0.00 10 1006.3
20260506051131 54 229 0.9 3.5 0.00 0.00 0.00 10 1006.2
20260506050631 54 229 1.7 5.2 0.00 0.00 0.00 10 1006.2
20260506050131 54 229 1.7 5.2 0.00 0.00 0.00 10 1006.2
20260506045131 54 229 2.6 7.8 0.00 0.00 0.00 10 1006.2
20260506044631 54 229 4.3 11.3 0.00 0.00 0.00 10 1006.2
20260506044131 54 229 4.3 11.3 0.00 0.00 0.00 10 1006.3
20260506043631 54 229 4.3 11.3 0.00 0.00 0.00 10 1006.4
20260506043130 54 226 0.0 1.7 0.00 0.00 0.00 10 1006.4
20260506042630 54 226 0.0 1.7 0.00 0.00 0.00 10 1006.4
20260506042130 54 226 0.0 1.7 0.00 0.00 0.00 10 1006.5
20260506041630 54 226 0.9 2.6 0.00 0.00 0.00 10 1006.4
20260506041130 54 226 0.9 2.6 0.00 0.00 0.00 10 1006.4
20260506040630 54 226 0.9 2.6 0.00 0.00 0.00 10 1006.5
20260506040130 54 226 1.7 4.3 0.00 0.00 0.00 10 1006.5
20260506035630 54 226 1.7 4.3 0.00 0.00 0.00 10 1006.5
20260506035130 54 226 1.7 4.3 0.00 0.00 0.00 10 1006.6
20260506034630 54 226 3.5 7.0 0.00 0.00 0.00 10 1006.5
20260506034130 54 226 3.5 7.0 0.00 0.00 0.00 10 1006.5
20260506033630 54 226 3.5 7.0 0.00 0.00 0.00 10 1006.5
20260506033130 54 226 5.2 10.4 0.00 0.00 0.00 10 1006.5
20260506032630 54 226 5.2 10.4 0.00 0.00 0.00 10 1006.6
20260506032129 54 226 5.2 10.4 0.00 0.00 0.00 10 1006.6
20260506031629 54 222 0.0 1.7 0.00 0.00 0.00 10 1006.7
20260506031129 54 222 0.0 1.7 0.00 0.00 0.00 10 1006.6
20260506030629 53 222 0.0 1.7 0.00 0.00 0.00 10 1006.7
20260506030129 53 222 0.9 2.6 0.00 0.00 0.00 10 1006.6
20260506025629 53 222 0.9 2.6 0.00 0.00 0.00 10 1006.6
20260506025129 53 222 0.9 2.6 0.00 0.00 0.00 10 1006.6
20260506024629 53 222 1.7 4.3 0.00 0.00 0.00 10 1006.6
20260506024129 53 222 1.7 4.3 0.00 0.00 0.00 10 1006.5
20260506023629 53 222 1.7 4.3 0.00 0.00 0.00 10 1006.5
20260506023129 54 222 2.6 6.1 0.00 0.00 0.00 10 1006.6
20260506022629 54 222 2.6 6.1 0.00 0.00 0.00 10 1006.6
20260506022129 54 222 2.6 6.1 0.00 0.00 0.00 10 1006.6
20260506021628 54 222 4.3 9.6 0.00 0.00 0.00 10 1006.6
20260506021128 54 222 4.3 9.6 0.00 0.00 0.00 10 1006.6
20260506020628 54 211 0.0 2.6 0.00 0.00 0.00 10 1006.7
20260506020128 55 211 0.0 2.6 0.00 0.00 0.00 10 1006.6
20260506015628 55 211 0.9 4.3 0.00 0.00 0.00 10 1006.6
20260506015128 55 211 0.9 4.3 0.00 0.00 0.00 10 1006.7
20260506014628 55 211 1.7 6.1 0.00 0.00 0.00 10 1006.7
20260506014128 55 211 1.7 6.1 0.00 0.00 0.00 10 1006.8
20260506013628 55 211 1.7 6.1 0.00 0.00 0.00 10 1006.9
20260506013128 55 211 3.5 8.7 0.00 0.00 0.00 10 1007.0
20260506012628 55 211 3.5 8.7 0.00 0.00 0.00 10 1007.0
20260506012128 55 211 3.5 8.7 0.00 0.00 0.00 10 1007.0
20260506011628 54 209 0.0 1.7 0.00 0.00 0.00 10 1007.0
20260506011128 54 209 0.9 3.5 0.00 0.00 0.00 10 1007.1
20260506010628 54 209 0.9 3.5 0.00 0.00 0.00 10 1007.1
20260506010128 54 209 0.9 3.5 0.00 0.00 0.00 10 1007.1
20260506005628 54 209 1.7 5.2 0.00 0.00 0.00 10 1007.1
20260506005127 54 209 2.6 7.8 0.00 0.00 0.00 10 1007.1
20260506004627 54 209 2.6 7.8 0.00 0.00 0.00 10 1007.1
20260506004127 54 209 2.6 7.8 0.00 0.00 0.00 10 1007.0
20260506003627 54 204 0.0 0.9 0.00 0.00 0.00 10 1007.0
20260506003127 54 204 0.9 1.7 0.00 0.00 0.00 10 1007.0
20260506002627 54 204 1.7 2.6 0.00 0.00 0.00 10 1007.1
20260506002127 54 204 1.7 2.6 0.00 0.00 0.00 10 1007.1
20260506001627 54 204 1.7 2.6 0.00 0.00 0.00 10 1007.1
20260506001127 55 204 2.6 4.3 0.00 0.00 0.00 10 1007.1
20260506000627 55 204 2.6 4.3 0.00 0.00 0.00 10 1007.1
20260506000127 55 204 2.6 4.3 0.00 0.00 0.00 10 1007.1
20260505235627 55 204 0.0 0.9 0.00 0.00 0.00 10 1007.2
20260505235127 55 204 0.0 0.9 0.00 0.00 0.00 10 1007.2
20260505234626 55 204 0.0 0.9 0.00 0.00 0.00 10 1007.3
20260505234126 56 204 0.9 1.7 0.00 0.00 0.00 10 1007.3
20260505233626 56 204 0.9 1.7 0.00 0.00 0.00 10 1007.3
20260505233126 56 204 0.9 1.7 0.00 0.00 0.00 10 1007.3
20260505232626 56 204 1.7 2.6 0.00 0.00 0.00 10 1007.3
20260505232126 56 204 0.0 0.9 0.00 0.00 0.00 10 1007.3
20260505231626 56 204 0.0 0.9 0.00 0.00 0.00 10 1007.4
20260505231126 56 204 0.9 1.7 0.00 0.00 0.00 10 1007.4
20260505230626 57 204 0.9 1.7 0.00 0.00 0.00 10 1007.4
20260505230126 57 204 0.9 1.7 0.00 0.00 0.00 10 1007.4
20260505225626 57 204 1.7 2.6 0.00 0.00 0.00 10 1007.4
20260505225126 57 204 1.7 2.6 0.00 0.00 0.00 10 1007.4
20260505224626 57 204 1.7 2.6 0.00 0.00 0.00 10 1007.4
20260505224125 57 211 0.0 0.0 0.00 0.00 0.00 10 1007.4
20260505223625 58 211 0.0 0.0 0.00 0.00 0.00 10 1007.4
20260505223125 58 211 0.9 0.0 0.00 0.00 0.00 10 1007.5
20260505222625 58 211 0.9 0.0 0.00 0.00 0.00 10 1007.5
20260505222125 58 211 0.9 0.0 0.00 0.00 0.00 10 1007.5
20260505221625 58 211 1.7 0.9 0.00 0.00 0.00 10 1007.5
20260505221125 58 211 0.0 0.0 0.00 0.00 0.00 10 1007.5
20260505220625 58 211 0.0 0.0 0.00 0.00 0.00 10 1007.5
20260505220125 58 211 0.0 0.0 0.00 0.00 0.00 10 1007.6
20260505215625 58 211 0.9 0.0 0.00 0.00 0.00 10 1007.6
20260505215125 58 211 0.9 0.0 0.00 0.00 0.00 10 1007.6
20260505214625 58 211 1.7 0.9 0.00 0.00 0.00 10 1007.6
20260505214125 58 211 1.7 0.9 0.00 0.00 0.00 10 1007.7
20260505213624 58 211 1.7 0.9 0.00 0.00 0.00 10 1007.7
20260505213125 58 231 0.0 0.0 0.00 0.00 0.00 10 1007.6
20260505212624 58 231 0.0 0.0 0.00 0.00 0.00 10 1007.7
20260505212124 58 231 0.9 0.9 0.00 0.00 0.00 10 1007.7
20260505211624 58 231 0.9 0.9 0.00 0.00 0.00 10 1007.7
20260505211124 59 231 0.9 0.9 0.00 0.00 0.00 10 1007.8
20260505210624 58 231 1.7 1.7 0.00 0.00 0.00 10 1007.8
20260505210124 58 231 0.0 0.0 0.00 0.00 0.00 10 1007.8
20260505205624 58 231 0.9 0.9 0.00 0.00 0.00 10 1007.8
20260505205124 58 231 0.9 0.9 0.00 0.00 0.00 10 1007.8
20260505204624 58 231 0.9 0.9 0.00 0.00 0.00 10 1007.8
20260505204124 58 231 1.7 1.7 0.00 0.00 0.00 10 1007.8
20260505203624 58 236 0.0 0.9 0.00 0.00 0.00 10 1007.8
20260505203124 59 236 0.0 0.9 0.00 0.00 0.00 10 1007.9
20260505202624 59 236 0.0 0.9 0.00 0.00 0.00 10 1007.9
20260505202124 59 236 0.9 1.7 0.00 0.00 0.00 10 1007.9
20260505201624 59 236 0.9 1.7 0.00 0.00 0.00 10 1007.9
20260505201123 59 236 1.7 2.6 0.00 0.00 0.00 10 1007.9
20260505200623 59 236 1.7 2.6 0.00 0.00 0.00 10 1007.9
20260505200123 59 236 0.0 0.9 0.00 0.00 0.00 10 1007.9
20260505195623 59 236 0.0 0.9 0.00 0.00 0.00 10 1007.9
20260505195122 59 236 0.0 0.9 0.00 0.00 0.00 10 1007.9
20260505194622 59 236 0.9 1.7 0.00 0.00 0.00 10 1007.9
20260505194122 59 236 0.9 1.7 0.00 0.00 0.00 10 1007.9
20260505193622 59 236 1.7 2.6 0.00 0.00 0.00 10 1007.8
20260505193122 59 245 0.0 0.9 0.00 0.00 0.00 10 1007.8
20260505192622 59 245 0.0 0.9 0.00 0.00 0.00 10 1007.8
20260505192122 59 245 0.0 0.9 0.00 0.00 0.00 10 1007.7
20260505191622 59 245 0.9 1.7 0.00 0.00 0.00 10 1007.7
20260505191122 59 245 0.9 1.7 0.00 0.00 0.00 10 1007.7
20260505190622 59 245 0.9 1.7 0.00 0.00 0.00 10 1007.7
20260505190121 59 245 0.0 0.9 0.00 0.00 0.00 10 1007.6
20260505185622 59 245 0.9 1.7 0.00 0.00 0.00 10 1007.7
20260505185121 59 227 0.0 0.9 0.00 0.00 0.00 10 1007.7
20260505184621 60 227 0.0 0.9 0.00 0.00 0.00 10 1007.6
20260505184121 60 227 0.0 0.9 0.00 0.00 0.00 10 1007.6
20260505183621 60 227 0.9 1.7 0.00 0.00 0.00 10 1007.6
20260505183121 60 227 1.7 3.5 0.00 0.00 0.00 10 1007.6
20260505182621 60 227 1.7 3.5 0.00 0.00 0.00 10 1007.6
20260505182121 60 227 1.7 3.5 0.00 0.00 0.00 10 1007.6
20260505181621 60 227 2.6 5.2 0.00 0.00 0.00 10 1007.7
20260505181121 60 227 2.6 5.2 0.00 0.00 0.00 10 1007.7
20260505180621 60 227 2.6 5.2 0.00 0.00 0.00 10 1007.7
20260505180121 61 227 2.6 5.2 0.00 0.00 0.00 10 1007.7
20260505175621 61 227 2.6 5.2 0.00 0.00 0.00 10 1007.7
20260505175121 61 227 2.6 5.2 0.00 0.00 0.00 10 1007.7
20260505174620 61 227 2.6 5.2 0.00 0.00 0.00 10 1007.7
20260505174120 61 227 2.6 5.2 0.00 0.00 0.00 10 1007.6
20260505173620 61 251 3.5 7.0 0.00 0.00 0.00 10 1007.6
20260505173120 61 251 3.5 7.0 0.00 0.00 0.00 10 1007.7
20260505172628 61 251 3.5 7.0 0.00 0.00 0.00 10 1007.8
20260505172120 61 251 3.5 7.0 0.00 0.00 0.00 10 1007.8
20260505171620 61 251 3.5 7.0 0.00 0.00 0.00 10 1007.7
20260505171120 61 251 3.5 7.0 0.00 0.00 0.00 10 1007.8
20260505170620 61 251 3.5 7.0 0.00 0.00 0.00 10 1007.8
20260505170120 61 251 3.5 7.0 0.00 0.00 0.00 10 1007.8
20260505165620 62 251 3.5 7.0 0.00 0.00 0.00 10 1007.8
20260505165120 62 251 3.5 7.0 0.00 0.00 0.00 10 1007.8
20260505164620 62 251 3.5 7.0 0.00 0.00 0.00 10 1007.9
20260505164120 62 251 3.5 7.0 0.00 0.00 0.00 99 1007.9
20260505163619 62 240 3.5 7.8 0.00 0.00 0.00 10 1007.9
20260505163119 62 240 3.5 7.8 0.00 0.00 0.00 10 1007.9
20260505162619 62 240 3.5 7.8 0.00 0.00 0.00 10 1007.9
20260505162119 62 240 3.5 7.8 0.00 0.00 0.00 10 1007.9
20260505161619 62 240 3.5 7.8 0.00 0.00 0.00 10 1007.9
20260505161119 62 240 3.5 7.8 0.00 0.00 0.00 10 1007.9
20260505160619 63 240 3.5 7.8 0.00 0.00 0.00 10 1008.0
20260505160119 63 240 3.5 7.8 0.00 0.00 0.00 10 1008.0
20260505153119 62 240 3.5 7.8 0.00 0.00 0.00 10 1008.3
20260505152618 62 236 2.6 6.1 0.00 0.00 0.00 10 1008.3
20260505152118 62 236 2.6 6.1 0.00 0.00 0.00 10 1008.3
20260505151618 62 236 2.6 6.1 0.00 0.00 0.00 99 1008.4
20260505151118 62 236 2.6 6.1 0.00 0.00 0.00 10 1008.4
20260505150618 62 236 2.6 6.1 0.00 0.00 0.00 98 1008.3
20260505150118 62 236 2.6 6.1 0.00 0.00 0.00 98 1008.3
20260505140617 63 244 3.5 6.1 0.00 0.00 0.00 10 1008.5
20260505140117 63 244 3.5 6.1 0.00 0.00 0.00 10 1008.5
20260505130116 66 251 2.6 5.2 0.00 0.00 0.00 77 1008.6
20260505124616 67 251 2.6 5.2 0.00 0.00 0.00 78 1008.6
20260505124116 67 251 2.6 5.2 0.00 0.00 0.00 75 1008.6
20260505123616 67 224 0.9 2.6 0.00 0.00 0.00 76 1008.6
20260505123116 67 224 0.9 2.6 0.00 0.00 0.00 79 1008.7
20260505122616 66 224 0.9 2.6 0.00 0.00 0.00 81 1008.6
20260505122116 66 224 1.7 4.3 0.00 0.00 0.00 82 1008.7
20260505121616 66 224 3.5 6.1 0.00 0.00 0.00 80 1008.7
20260505121116 66 224 3.5 6.1 0.00 0.00 0.00 76 1008.7
20260505120616 66 224 3.5 6.1 0.00 0.00 0.00 76 1008.8
20260505120115 67 240 0.0 0.0 0.00 0.00 0.00 71 1008.7
20260505115615 66 240 0.0 0.0 0.00 0.00 0.00 68 1008.8
20260505115115 66 240 0.9 0.9 0.00 0.00 0.00 69 1008.8
20260505114615 66 240 0.9 0.9 0.00 0.00 0.00 71 1008.8
20260505114115 66 240 0.9 0.9 0.00 0.00 0.00 71 1008.8